RH
20 23 28 31 38 42 41 40 35 41 40 28 30 34 35 36 33 29 25 25 24 20 19 24 23 19 53 98 100 96 102 100 99 99 100 101 99 101 101 100 101 99 95 91 88 84 83 81 76 77 74 53 33 33 45 55 61 59 56 59 58 57 57 59 56 42 30 25 30 41 49 59 65 64 66 66 63 61 63 72 78 80 82 86 86 84
25 27 36 39 41 46 54 55 43 41 38 29 31 35 36 39 35 28 24 28 30 20 19 30 31 31 64 97 100 98 99 99 101 99 100 101 100 101 100 100 101 99 96 92 90 86 83 80 74 76 78 61 38 32 38 43 50 55 56 57 57 56 52 52 48 31 22 23 28 39 47 52 58 60 62 62 57 51 51 62 76 83 86 86 87 88
33 33 38 41 48 52 58 60 46 39 41 40 41 38 35 36 33 29 30 39 38 24 21 33 36 41 64 84 90 98 99 96 99 101 100 100 101 101 100 101 100 100 99 94 91 86 81 77 70 69 75 68 47 36 36 38 46 55 56 57 58 58 51 44 35 24 23 24 25 38 46 48 52 55 58 57 53 49 45 47 55 68 85 91 90 92
33 35 38 42 50 45 43 57 57 46 46 49 45 36 33 32 28 27 34 42 45 39 33 36 39 42 54 66 74 81 84 86 92 97 101 100 100 101 100 101 100 100 99 92 88 85 81 77 68 64 68 67 54 44 43 44 46 53 57 57 57 57 48 33 24 21 22 23 24 34 40 43 46 49 53 52 47 44 44 43 38 44 73 96 96 93
28 30 37 46 50 39 32 49 58 44 41 53 50 37 33 33 25 25 36 48 55 49 42 45 44 40 51 70 77 68 63 76 90 96 100 101 100 100 100 100 100 101 97 90 86 83 82 74 64 61 64 63 55 46 46 49 49 53 58 57 56 56 42 24 20 20 20 22 24 29 32 33 35 38 41 42 39 37 38 40 34 28 46 74 88 92
27 24 28 37 42 38 32 42 53 42 37 46 50 41 34 33 29 29 41 54 55 39 35 46 37 35 52 64 65 57 53 74 95 99 99 100 100 100 100 100 100 101 97 91 85 81 78 71 63 61 62 59 53 48 49 52 51 54 57 57 57 53 36 21 20 20 20 21 23 27 28 26 29 33 34 32 30 30 28 26 24 19 20 30 48 66
31 26 28 35 43 44 34 40 53 49 38 37 43 44 40 38 31 33 38 40 41 34 39 50 37 37 51 47 46 48 49 73 96 98 97 97 98 100 100 99 99 99 98 92 85 78 74 69 64 62 61 59 54 52 53 53 53 55 57 56 55 48 31 20 20 21 20 21 25 28 29 31 35 38 36 26 19 20 20 17 16 16 17 17 27 44
30 27 34 40 49 50 36 41 53 47 36 37 45 44 39 34 28 40 45 38 44 39 41 59 51 40 41 37 48 55 53 70 90 94 94 92 92 95 95 95 96 95 95 93 85 76 71 67 64 62 61 58 56 55 55 55 55 56 57 55 53 43 25 18 20 20 20 23 26 29 29 34 41 45 41 27 15 15 17 17 17 15 18 21 27 41
36 27 33 38 43 44 40 48 52 37 29 39 49 44 38 35 40 57 55 48 58 42 33 60 56 37 49 57 56 57 58 68 81 89 91 88 86 88 88 88 88 89 90 90 83 74 69 65 63 63 60 56 57 58 55 56 57 58 59 56 52 38 20 17 19 18 20 24 29 33 34 38 44 46 41 28 17 16 16 16 19 19 24 28 29 40
32 22 26 32 32 35 41 49 45 31 27 37 44 42 41 48 61 71 60 50 58 45 37 59 51 30 52 69 51 36 43 58 69 76 81 81 79 80 82 81 80 83 86 86 81 72 66 65 65 64 60 56 58 59 57 58 59 60 59 56 52 37 19 16 18 16 19 24 31 36 37 43 49 48 41 28 16 15 16 16 18 21 27 31 34 42
29 24 25 26 23 30 35 36 36 30 28 34 40 36 33 49 65 73 74 57 45 46 49 62 59 35 40 62 55 35 35 46 52 51 59 70 73 74 76 76 75 76 80 84 81 72 65 64 67 67 63 60 60 60 60 60 61 60 58 57 54 36 20 18 17 17 19 24 32 33 34 45 54 54 49 34 17 15 17 16 17 18 21 25 30 38
34 24 26 24 20 24 23 22 25 26 30 36 42 38 30 44 56 57 66 54 41 52 58 66 67 40 33 50 52 47 47 49 46 38 42 57 65 69 70 71 73 73 76 80 80 76 69 64 65 68 69 68 64 62 61 61 60 60 60 59 53 36 24 23 19 17 19 25 32 33 38 52 58 58 57 43 23 16 17 16 17 17 17 20 21 28
37 29 31 24 19 18 18 23 19 19 35 36 38 44 40 45 49 46 55 54 51 55 53 64 63 40 44 54 47 53 57 53 56 53 46 44 48 59 68 71 73 74 75 77 76 74 70 65 62 64 71 72 69 65 63 62 62 63 63 59 50 35 28 27 24 21 21 24 32 38 46 57 61 62 61 48 28 19 19 18 18 18 18 20 20 24
34 38 35 21 19 18 19 27 20 20 32 27 30 42 44 49 47 45 57 58 54 52 52 60 52 39 49 50 47 62 65 64 75 75 62 47 43 56 70 73 74 76 78 76 75 73 69 66 61 60 69 73 70 69 67 66 66 66 65 61 50 38 30 25 21 19 21 24 33 45 55 62 66 60 47 38 31 25 21 19 18 19 20 20 20 23
37 41 37 24 21 19 18 22 24 30 30 25 33 34 36 52 51 45 53 53 49 52 54 47 38 46 51 40 47 61 65 75 84 79 72 63 62 69 74 76 76 77 78 75 73 74 72 70 66 65 71 73 71 70 68 69 70 68 70 70 58 45 38 34 34 38 43 45 45 46 52 60 62 45 26 33 42 30 20 20 19 18 21 21 20 22
32 36 43 33 22 18 17 19 22 25 24 27 33 28 30 43 51 52 52 59 64 55 52 45 41 61 62 43 51 62 67 79 81 80 81 78 78 78 76 78 78 77 79 77 75 75 76 76 75 73 74 73 71 69 70 70 68 69 79 82 72 61 55 52 53 54 53 50 41 35 40 49 47 32 27 41 43 26 17 20 20 19 21 21 21 22
31 36 42 31 22 20 17 17 17 16 24 30 26 27 36 36 47 59 51 61 69 49 52 55 46 62 63 45 51 64 73 82 82 84 85 83 82 79 79 79 75 76 76 75 75 74 72 71 72 74 74 73 72 69 70 69 66 74 89 95 88 78 68 62 59 55 48 42 36 34 41 47 42 34 36 38 30 20 18 19 18 19 21 21 22 22
43 42 39 26 19 19 17 17 17 17 24 30 24 28 36 30 40 58 57 63 61 46 57 56 46 62 67 56 55 56 68 81 85 88 85 85 86 84 88 80 67 67 66 65 67 65 61 56 57 64 66 69 71 69 70 68 68 81 97 101 94 79 65 61 61 62 60 54 49 46 43 43 41 38 36 32 28 26 23 20 18 18 20 22 23 22
43 38 40 35 23 22 25 20 20 23 23 26 27 25 30 34 37 42 51 58 50 48 58 52 52 64 67 69 59 45 60 76 80 87 88 89 92 93 93 78 61 56 52 54 54 49 45 35 34 48 56 62 66 65 66 65 68 83 96 101 97 83 72 70 68 69 70 67 63 58 51 45 41 38 36 35 40 37 24 20 21 19 20 21 22 23
49 37 36 35 24 24 31 30 33 35 24 21 26 28 38 51 48 41 47 52 50 56 61 53 55 60 66 77 60 44 66 79 78 87 90 90 92 88 76 61 59 61 53 55 53 40 34 30 35 54 62 64 64 61 62 62 67 81 93 99 98 87 81 83 80 76 75 73 69 65 61 52 42 38 38 43 52 43 22 20 25 22 21 21 21 23
49 30 35 43 34 28 28 30 37 37 26 27 35 35 39 43 40 38 43 47 52 63 66 57 55 61 73 81 65 53 67 75 80 88 88 89 89 87 74 56 61 69 59 60 61 48 43 48 56 65 67 66 65 63 65 67 72 80 87 92 90 80 76 82 85 82 78 76 73 71 70 58 44 41 43 49 55 42 22 22 24 21 22 22 21 23
41 35 53 57 41 33 27 25 31 29 27 37 40 35 39 43 40 37 38 46 57 63 64 61 59 63 70 75 74 74 74 75 79 83 86 89 86 89 89 70 67 74 65 62 66 62 61 63 64 67 67 67 68 68 70 72 74 77 80 83 81 76 74 77 81 83 84 84 82 80 77 61 47 48 52 54 57 43 26 24 22 20 24 22 21 23
55 61 59 46 35 33 28 27 32 28 27 35 36 41 50 47 46 52 52 52 55 54 56 60 59 60 65 76 86 88 85 78 73 75 84 89 86 88 88 78 74 77 71 67 65 64 64 64 63 64 65 68 70 70 71 71 72 75 77 79 78 76 74 72 73 80 86 91 89 86 83 69 59 61 57 56 64 54 35 28 24 22 24 24 25 26
56 59 45 38 44 45 37 36 39 37 37 34 35 50 53 39 50 74 76 69 60 53 54 51 51 56 63 77 85 83 85 83 75 77 82 86 89 89 84 79 76 74 73 73 70 67 67 67 67 68 67 69 69 68 69 70 72 74 76 78 79 76 73 71 72 77 83 89 89 88 87 80 72 65 54 54 67 63 43 32 27 24 26 30 33 35
35 43 46 44 45 44 42 44 45 40 38 35 36 49 52 51 61 63 63 70 61 52 56 51 53 68 68 65 68 69 79 87 84 82 82 86 88 84 80 78 76 75 76 75 72 70 69 68 69 70 67 62 61 64 68 70 72 74 76 78 79 78 76 75 75 77 80 85 87 86 86 83 74 63 55 59 68 63 51 42 33 26 29 37 45 49
42 54 65 59 47 43 45 52 58 50 38 37 42 47 51 56 52 37 45 65 53 43 58 62 65 76 71 64 65 65 74 87 88 83 83 86 85 81 80 79 77 78 76 74 72 65 58 55 55 60 61 59 62 67 70 70 71 73 75 76 77 78 80 81 82 83 84 87 89 88 87 82 73 65 62 64 67 65 62 56 42 31 31 42 52 56
68 65 66 66 56 51 52 55 60 54 42 37 36 44 59 68 64 52 49 58 56 51 55 61 71 73 67 70 72 70 78 86 87 85 81 80 82 83 84 84 83 83 78 73 66 53 47 46 50 61 68 69 71 72 72 73 72 72 73 72 73 77 81 85 89 91 91 90 90 90 89 85 78 71 65 64 64 64 65 62 52 40 34 39 48 52
82 61 55 66 58 49 50 47 46 48 49 49 45 49 64 76 77 60 38 40 59 62 51 57 77 79 71 77 79 78 83 86 87 90 84 77 76 78 81 83 83 84 80 73 63 57 58 61 66 73 75 74 74 73 72 73 72 73 74 73 74 78 81 86 92 95 96 95 93 92 90 84 78 70 62 59 60 63 65 63 56 46 39 38 42 47
83 62 55 65 58 50 49 44 47 55 60 66 71 69 69 76 76 61 52 59 61 58 61 69 82 83 74 76 80 78 82 86 90 92 85 75 71 69 72 74 74 76 78 76 75 76 74 70 69 70 68 66 65 64 65 68 72 78 79 78 78 78 80 87 92 94 94 93 93 93 90 85 81 77 72 68 67 66 66 63 59 54 51 49 45 46
70 62 57 61 58 56 55 50 52 59 62 67 76 77 74 77 79 72 76 81 68 64 78 82 82 82 73 71 76 73 74 81 83 83 81 79 77 72 69 70 70 68 68 69 73 76 74 68 62 58 56 54 50 49 55 63 72 79 81 82 83 81 81 83 87 89 90 88 87 89 89 86 84 85 83 79 76 73 70 68 67 64 62 62 61 57
57 58 62 69 68 62 57 57 60 63 66 68 72 78 73 66 71 75 76 79 76 76 80 79 82 80 67 65 70 65 64 70 71 74 82 86 83 76 74 76 74 68 65 64 64 66 69 69 64 58 55 53 49 47 49 54 59 62 64 69 77 83 82 79 81 85 86 87 86 85 86 85 85 86 84 83 82 80 77 76 76 74 72 72 73 71
64 62 65 73 76 66 56 59 67 66 65 67 70 78 80 71 70 77 77 77 78 76 73 76 82 79 67 64 65 61 60 63 62 65 72 77 75 68 65 67 67 66 67 65 63 62 63 65 65 62 59 58 56 53 50 49 47 44 44 45 53 66 70 69 72 76 81 86 87 86 88 88 88 88 87 88 89 86 84 82 79 79 80 79 81 81
71 59 54 65 69 61 57 62 66 62 63 73 75 75 80 80 75 75 77 79 79 77 76 77 77 75 70 67 67 65 63 61 61 59 58 61 60 53 49 48 49 54 60 62 64 64 62 62 62 61 61 61 60 59 57 54 50 48 47 45 46 52 56 56 57 58 64 72 77 80 84 87 90 90 88 90 89 86 85 82 81 83 83 85 88 82
74 63 60 73 69 55 61 69 63 57 63 75 81 79 78 78 75 75 78 79 77 74 75 75 73 72 72 71 69 67 64 60 58 53 48 47 45 41 40 41 40 43 48 54 59 61 62 62 59 57 59 60 60 60 59 59 58 57 56 55 54 54 54 54 52 49 49 53 58 62 64 68 75 79 82 86 86 86 84 81 84 87 82 81 84 78
71 67 65 80 80 65 66 70 61 61 71 77 80 80 74 68 67 68 69 72 74 73 69 68 68 67 66 65 61 58 56 52 49 48 46 44 41 39 38 38 39 40 42 44 48 50 55 57 56 54 54 55 57 57 56 56 57 57 58 56 54 51 50 52 52 50 49 49 48 49 50 53 59 64 72 81 83 82 81 78 82 83 78 78 81 80
62 66 65 69 69 61 60 65 66 67 72 74 72 68 65 64 66 67 66 63 67 73 70 65 65 64 59 57 55 52 48 42 40 42 42 41 40 38 37 36 37 39 39 38 39 40 42 45 46 46 46 49 53 53 54 55 53 53 55 54 51 50 47 47 47 47 49 49 45 42 43 47 53 60 66 71 72 74 74 74 76 78 78 81 81 78
56 60 63 59 60 69 76 82 83 81 80 79 72 64 63 64 67 74 73 62 59 68 67 61 62 61 53 51 52 53 51 49 47 43 38 38 39 36 37 37 36 36 37 36 36 36 36 37 38 39 40 43 46 48 51 54 53 54 55 53 51 50 46 45 45 45 47 47 43 40 39 39 43 51 56 57 60 66 70 69 69 72 74 74 70 66
54 51 54 51 58 81 96 98 97 98 94 85 76 69 62 61 65 74 76 64 57 60 60 59 63 61 53 48 46 51 57 61 60 50 39 38 39 36 36 37 35 36 35 33 33 33 32 32 32 33 33 35 39 43 44 47 51 55 56 54 52 51 50 48 47 47 47 46 44 42 40 38 38 42 45 44 45 53 59 58 56 58 60 57 54 53
58 66 70 62 61 73 85 94 100 99 90 81 79 72 59 56 62 71 78 74 61 54 53 57 60 57 52 45 40 51 68 73 70 60 44 39 41 38 37 37 34 34 34 33 33 32 31 32 31 29 28 27 30 35 37 40 45 49 53 55 54 54 55 53 50 49 48 46 45 44 43 42 41 39 39 39 40 44 49 49 46 45 43 40 40 40
74 86 81 67 69 74 75 83 91 93 85 78 77 70 58 55 57 67 84 84 63 52 51 51 51 49 46 40 37 52 71 72 67 59 45 40 42 40 39 38 35 34 33 32 32 31 30 30 29 28 28 26 25 27 27 29 33 38 44 49 49 51 53 54 55 55 51 48 48 49 48 46 44 41 40 41 44 45 45 43 39 34 31 29 28 28
88 95 84 73 83 89 87 89 95 96 88 75 68 61 53 55 60 74 90 81 57 51 52 49 50 51 47 44 43 50 60 58 54 50 44 41 40 38 37 37 34 34 34 33 33 33 31 31 30 29 28 28 27 27 25 25 24 26 30 36 41 44 45 47 50 53 54 54 53 52 49 47 46 44 41 41 44 45 45 43 40 35 32 30 27 26
84 92 90 87 92 94 93 96 99 94 80 67 64 54 48 62 77 79 77 64 50 51 51 47 50 52 49 49 50 52 55 53 51 49 46 43 42 39 38 36 33 33 32 32 34 34 32 32 32 31 30 30 31 31 30 29 25 22 23 26 31 37 40 41 43 44 47 51 54 54 49 44 45 46 44 44 44 45 46 46 44 43 42 39 34 31
68 87 95 90 88 91 95 98 98 91 74 65 68 62 57 72 78 65 57 57 53 52 49 47 48 49 48 50 51 53 54 53 51 50 46 44 43 42 41 40 39 38 37 36 37 38 37 36 34 33 34 35 37 38 39 39 34 28 25 23 24 29 34 37 40 40 41 44 48 51 49 45 45 45 46 47 48 47 49 49 47 47 46 44 40 35
62 86 95 88 85 93 100 95 86 80 70 65 70 69 64 65 61 53 54 58 55 52 51 50 50 51 52 52 52 54 53 51 52 52 49 47 45 44 44 43 42 43 42 42 44 46 48 47 43 40 38 38 40 43 46 49 48 42 36 30 27 29 32 34 37 38 39 40 41 44 46 47 48 48 49 51 50 49 49 48 47 46 44 42 42 40
65 72 78 84 87 89 93 86 74 71 72 67 65 64 61 58 56 57 57 54 52 53 54 53 54 56 57 57 57 58 56 54 55 54 53 53 52 51 52 51 50 52 51 49 50 51 52 54 53 49 45 44 46 50 54 59 62 57 50 42 38 36 35 35 37 38 38 39 39 39 40 41 44 48 50 52 53 53 52 49 47 46 45 44 43 44
58 57 66 82 85 82 85 82 77 79 77 70 66 66 64 62 60 60 59 57 57 59 60 61 63 63 63 63 63 63 62 61 60 58 57 58 55 53 53 52 54 58 59 58 58 57 55 54 53 52 50 47 48 53 58 64 69 68 63 58 52 47 43 40 39 39 40 40 40 39 38 37 39 42 44 46 49 52 52 51 49 47 47 47 46 47
53 51 66 81 81 81 84 79 75 76 72 68 68 67 65 65 63 61 63 62 61 64 67 68 68 67 68 69 69 68 69 70 69 68 67 64 60 55 53 53 54 57 60 61 61 59 57 55 52 51 50 46 45 48 51 54 59 64 67 68 66 61 55 50 45 41 40 41 42 43 41 39 37 38 39 40 42 44 47 49 50 49 48 48 48 47
48 46 64 81 84 83 80 70 66 68 66 64 65 62 60 63 62 61 63 64 65 69 71 70 71 73 74 76 76 76 77 76 76 75 72 67 63 60 58 58 58 57 56 57 56 56 55 54 52 51 50 49 48 49 48 48 50 54 61 68 73 74 70 63 56 50 44 40 40 44 47 45 42 38 37 37 37 37 40 44 46 46 45 45 45 43
52 50 56 72 81 79 72 65 65 70 70 66 64 62 61 62 62 62 65 66 68 71 72 73 76 77 77 79 81 80 78 76 75 74 71 66 63 62 61 61 60 59 58 56 55 55 56 55 55 55 53 53 53 52 51 49 48 49 53 58 65 75 79 76 69 63 55 47 42 41 44 49 50 46 40 38 38 39 41 43 45 44 43 42 41 39
62 62 62 75 83 78 72 68 68 74 76 68 63 64 64 63 65 67 69 71 72 74 76 78 79 80 82 83 82 80 78 75 72 71 70 67 64 63 64 65 65 64 63 61 61 62 63 64 66 66 64 63 63 63 60 57 54 53 53 54 55 61 69 76 78 74 66 58 52 45 41 44 50 53 50 47 47 49 50 50 48 46 45 44 42 40
58 57 62 74 77 67 61 58 58 63 67 62 61 67 69 69 73 76 77 79 80 80 82 84 84 86 87 84 80 79 77 74 72 71 69 66 65 67 71 73 72 70 70 74 78 80 81 83 84 85 85 83 83 82 80 77 73 69 66 65 63 59 57 63 73 79 77 68 59 52 46 43 45 50 53 53 54 56 56 54 51 49 47 45 43 43
Wind_Speed
4 3 1 4 5 6 7 6 6 5 5 5 3 2 3 3 4 6 6 6 2 5 4 5 7 6 7 10 11 15 17 14 15 16 14 15 18 22 25 26 26 27 27 26 26 27 27 26 26 23 24 27 25 22 22 20 19 19 17 16 15 13 11 11 9 6 4 3 2 4 5 4 4 2 2 2 2 3 3 3 4 5 4 3 5 5
3 3 4 8 8 8 7 5 5 4 4 3 2 1 3 3 5 7 5 6 2 3 2 2 7 5 4 7 8 12 12 11 17 19 16 17 20 23 26 27 27 26 26 26 27 27 27 27 26 24 27 29 26 23 20 19 19 19 19 18 16 13 11 11 9 6 4 3 3 4 5 5 4 2 1 1 0 1 2 3 3 2 2 3 4 3
3 2 9 9 6 5 4 4 5 4 4 3 2 2 2 3 4 7 5 4 3 1 1 2 6 1 3 3 4 7 8 10 16 17 14 16 20 25 28 26 25 25 25 26 26 27 27 27 26 27 29 30 27 24 19 18 20 21 20 19 16 14 13 11 10 8 6 4 4 5 5 4 4 3 2 2 2 2 1 2 2 3 2 1 2 1
0 5 8 5 7 6 3 3 6 5 3 3 3 3 3 4 0 3 4 4 5 2 3 5 5 3 4 1 2 3 4 4 8 13 12 14 20 24 24 23 24 25 25 25 26 27 27 27 27 28 31 30 28 25 20 20 23 23 22 20 17 15 14 12 11 10 7 6 6 7 6 4 4 4 4 4 4 4 3 2 2 3 2 1 1 2
5 6 3 6 7 7 4 3 6 5 1 3 4 5 3 4 4 4 4 5 5 4 4 7 5 4 2 1 3 3 2 1 4 11 12 14 18 20 20 21 23 25 26 26 26 26 27 28 28 28 30 30 28 25 22 22 24 24 22 20 18 16 15 14 13 11 9 7 7 8 6 4 4 4 5 5 5 4 4 3 2 3 3 3 3 4
7 7 5 6 4 6 6 4 5 7 2 3 4 8 8 5 5 4 2 5 5 4 3 4 4 3 5 2 5 3 2 1 4 9 12 15 18 20 21 21 22 24 25 27 27 26 28 28 29 28 28 29 27 25 23 23 23 23 22 20 19 18 17 16 15 12 10 9 8 7 4 3 4 5 5 6 6 5 4 4 3 2 3 4 4 4
4 3 4 5 5 5 4 3 5 7 5 2 5 7 7 5 3 1 3 3 2 0 1 3 5 2 5 4 3 2 3 3 2 5 10 16 20 23 24 21 21 24 25 27 27 27 28 29 29 29 28 28 27 25 24 23 22 22 21 20 20 19 18 17 15 13 11 10 9 6 2 2 4 5 6 7 7 7 6 6 5 4 3 2 3 3
3 2 3 4 5 5 3 4 5 8 8 2 5 6 8 6 4 2 5 4 2 2 2 4 4 4 1 4 3 2 3 3 4 5 8 14 20 24 25 22 22 25 27 28 29 30 30 30 30 30 29 28 26 25 24 23 22 22 21 21 21 20 18 17 16 14 13 11 9 6 3 1 2 4 5 6 7 7 7 7 7 6 4 2 1 2
3 4 3 4 5 2 4 5 7 10 6 5 5 7 6 5 5 4 6 3 1 1 2 6 4 4 2 5 4 4 3 4 7 8 8 12 20 24 25 24 23 24 27 29 31 31 32 31 31 29 28 26 25 25 25 23 23 23 23 23 21 20 19 18 17 16 14 12 9 6 3 2 3 5 6 6 6 6 7 8 7 6 4 3 1 1
2 5 6 5 4 4 6 4 9 11 4 4 6 6 5 5 5 4 5 3 3 3 3 6 4 3 3 5 4 3 1 5 7 7 8 13 20 23 26 27 25 24 26 29 30 30 31 31 30 28 26 24 25 26 26 24 24 24 24 23 21 21 20 19 18 17 16 13 10 6 3 3 5 6 6 6 6 6 7 7 7 6 4 3 2 2
3 2 3 3 3 5 4 2 5 7 4 5 6 6 6 6 5 3 4 4 4 2 5 6 2 3 1 5 3 0 2 4 5 6 6 10 18 23 26 28 28 26 26 28 28 28 28 29 29 27 25 24 25 27 27 25 25 24 24 23 22 22 21 20 19 19 17 14 10 7 4 3 5 6 8 8 7 7 8 7 7 6 5 4 3 2
6 2 2 3 3 4 6 4 2 2 3 5 5 5 4 4 5 4 4 4 4 2 6 5 3 3 2 3 3 4 7 5 5 7 5 6 15 24 26 28 28 26 25 26 26 27 27 28 29 28 25 24 25 27 28 27 26 25 25 24 23 23 23 22 21 20 18 15 12 8 5 4 5 6 8 9 9 9 9 8 7 6 5 4 3 2
4 3 4 4 3 5 5 4 3 4 5 5 5 5 4 2 3 2 3 1 2 4 3 3 2 2 3 4 4 5 8 7 6 8 8 8 14 20 23 24 24 23 23 23 25 26 26 27 29 30 27 23 25 28 30 30 29 28 25 23 24 25 25 24 22 21 19 17 14 10 7 5 4 5 7 8 8 9 9 8 6 6 4 3 3 2
3 5 4 3 3 4 6 5 2 1 1 4 5 4 4 3 2 1 2 1 2 4 2 4 3 1 3 3 2 5 7 8 7 6 5 8 13 15 18 20 20 20 20 21 22 23 24 25 27 29 27 23 24 27 31 32 31 29 26 25 27 28 27 25 24 22 20 18 14 10 7 6 6 7 5 3 4 5 7 7 5 4 3 2 2 1
1 4 3 3 2 1 4 5 6 5 3 3 4 5 5 4 4 3 3 2 2 2 2 4 2 2 3 2 5 5 6 7 7 6 6 6 8 13 17 18 20 19 20 21 22 21 21 21 22 24 24 22 23 26 29 31 31 29 27 28 30 29 27 25 23 20 16 13 11 11 10 9 9 8 6 4 3 3 5 6 4 3 2 1 1 1
3 4 6 4 1 3 3 3 5 6 3 1 2 5 3 5 5 3 3 4 4 2 0 2 2 2 3 3 6 5 7 9 9 10 12 13 15 17 19 18 18 17 16 18 20 20 18 16 16 17 18 19 21 24 27 29 29 29 29 31 30 27 25 23 20 17 15 15 17 17 17 15 14 11 9 7 7 5 5 4 3 2 1 0 0 2
3 4 6 4 1 2 3 3 4 3 3 1 2 3 4 4 7 6 2 1 3 4 2 1 2 4 2 1 4 5 6 7 8 8 10 13 17 20 20 20 20 17 15 10 6 11 12 10 10 12 14 17 20 23 25 27 28 28 29 29 27 24 22 22 22 22 23 25 26 25 22 21 19 16 13 11 9 8 6 5 4 3 2 1 1 2
4 2 6 2 2 2 1 4 4 2 4 5 3 5 3 3 5 5 3 3 4 3 3 2 1 4 1 0 4 5 5 5 6 5 6 10 15 18 18 21 22 20 19 14 5 3 7 6 3 8 12 16 19 21 22 23 24 26 26 24 22 21 21 23 24 24 25 26 27 27 26 26 23 18 17 15 11 9 8 7 5 4 3 2 2 2
4 1 7 2 2 4 5 7 4 5 4 4 5 4 3 3 2 2 3 2 2 2 2 3 1 2 2 3 3 1 1 2 4 4 5 6 11 15 15 19 20 17 16 13 6 2 6 6 1 8 10 12 14 17 18 17 19 23 24 23 21 19 19 21 22 24 25 27 27 25 24 26 24 20 18 16 11 10 12 11 9 7 5 4 3 2
3 2 4 3 1 2 5 4 2 2 5 4 3 3 2 3 4 2 3 3 4 4 2 1 2 2 4 4 3 4 6 4 1 1 3 4 9 16 19 20 18 15 15 17 15 11 8 8 9 9 8 9 10 12 13 13 16 20 22 23 22 18 17 18 18 20 23 25 25 24 23 24 26 23 19 17 13 13 16 16 13 11 8 6 5 4
3 3 3 4 3 2 2 1 3 4 2 3 3 2 2 2 3 2 2 2 4 5 3 2 1 4 4 3 3 5 6 5 4 3 2 3 7 12 16 19 19 18 20 18 15 13 13 12 10 8 6 6 8 9 10 10 12 15 17 19 18 15 15 17 16 16 19 21 23 24 23 24 27 25 21 18 15 14 16 17 16 14 11 9 7 6
2 3 3 2 4 3 1 3 3 3 4 5 3 2 3 3 4 4 2 1 2 4 4 4 2 5 4 2 4 6 6 4 4 5 3 3 7 7 10 17 18 17 18 15 11 10 9 8 7 6 5 5 5 6 6 5 5 7 9 11 11 9 10 12 13 13 15 18 21 23 23 24 28 27 24 21 18 16 17 18 17 16 14 12 10 9
3 4 4 1 1 1 5 4 3 3 3 7 4 3 4 3 4 5 4 3 2 2 2 4 2 4 5 4 4 5 3 2 7 8 6 6 9 9 11 16 17 15 15 13 11 10 8 7 7 6 5 4 4 3 3 3 3 3 4 6 6 6 5 6 8 9 12 15 17 19 22 25 27 27 25 24 21 19 18 19 18 17 16 15 12 10
1 4 4 1 3 4 5 4 4 3 4 7 4 3 3 2 2 4 5 4 4 3 2 3 1 4 4 5 5 7 7 9 10 9 9 8 9 11 14 16 15 13 12 11 10 9 8 7 6 6 6 5 3 1 1 1 2 3 3 4 3 3 3 4 5 7 9 12 13 16 19 23 24 24 24 24 22 21 20 19 19 18 18 17 14 12
1 1 4 4 2 3 3 5 5 4 4 4 2 3 2 3 4 3 2 3 3 4 4 5 3 5 4 4 8 11 10 10 12 10 10 8 9 12 13 13 12 10 9 8 7 6 6 5 3 3 5 5 3 1 0 1 1 1 1 2 2 2 1 2 4 6 7 9 12 14 17 20 21 21 22 22 22 22 21 20 18 19 19 17 15 14
2 1 3 5 4 3 3 2 3 1 2 2 2 4 3 4 4 3 2 4 2 4 3 5 4 4 4 7 10 11 9 9 12 12 11 9 9 10 11 10 9 8 7 5 3 3 4 4 2 2 4 5 3 1 1 1 1 1 1 2 3 3 3 2 3 4 5 7 11 14 16 18 21 21 21 21 21 21 21 20 19 20 21 18 16 16
4 3 2 5 5 4 5 5 4 2 3 1 1 4 5 2 1 3 4 2 4 4 1 2 4 2 4 9 10 10 9 7 8 12 13 11 9 9 9 9 7 7 6 4 3 3 3 4 3 3 4 5 5 3 1 0 1 2 2 2 3 4 4 4 3 3 4 5 9 13 15 18 21 23 22 21 21 21 21 20 20 22 23 20 18 18
5 3 3 5 5 0 3 2 1 4 5 2 1 3 5 6 5 6 4 1 4 6 0 5 1 4 3 7 7 8 8 6 7 11 14 14 13 11 8 7 6 5 5 4 3 3 3 3 3 3 4 4 4 3 2 0 2 2 3 4 4 5 5 4 3 3 4 6 8 11 14 16 19 22 23 22 21 21 22 22 22 22 23 23 22 21
6 2 1 4 6 5 4 5 5 6 5 3 4 4 5 6 6 5 3 1 2 6 4 2 5 5 3 6 6 6 6 5 8 12 15 17 16 14 11 10 9 8 6 5 3 2 3 3 4 4 3 3 2 2 2 2 2 2 2 3 5 6 6 5 3 3 4 6 8 12 15 17 18 19 21 21 21 22 24 24 22 22 23 24 24 25
4 1 2 5 4 5 6 6 5 7 5 5 7 6 4 8 7 6 3 2 4 5 4 8 11 6 2 3 5 6 6 9 15 20 21 21 20 18 17 16 15 14 11 9 6 3 2 2 3 4 4 3 3 2 2 3 4 4 4 4 4 6 7 6 4 4 4 5 6 9 13 16 18 19 18 18 20 23 25 24 22 22 24 24 25 27
4 2 3 5 5 2 3 3 1 5 5 4 5 7 4 8 8 5 4 4 6 5 3 8 11 6 3 4 6 7 11 16 21 23 23 23 23 25 24 21 20 19 17 15 13 9 5 2 3 3 4 4 3 2 2 3 4 4 5 4 4 5 6 7 6 6 5 6 6 7 10 12 16 19 19 17 19 22 24 23 22 23 25 25 25 27
4 3 1 4 4 1 2 1 1 5 6 4 2 4 5 5 5 3 3 2 3 5 5 6 7 3 1 4 7 10 16 20 20 20 22 23 26 28 28 25 23 21 19 18 17 15 12 8 4 2 3 3 3 3 3 3 4 4 4 4 4 4 4 5 7 7 7 7 8 9 9 11 13 16 18 19 20 22 24 24 24 24 23 23 24 25
3 4 3 4 4 2 0 1 3 6 6 1 2 2 2 2 4 4 4 4 3 4 5 4 4 4 1 2 5 9 14 16 17 18 22 23 26 28 28 26 24 22 19 17 16 16 15 14 12 8 5 3 2 2 3 4 5 4 4 4 5 5 4 4 5 7 8 8 9 10 11 12 14 15 17 18 20 21 21 21 21 20 19 20 21 18
3 4 3 2 4 4 1 1 3 4 3 3 5 4 2 3 5 7 5 4 4 4 3 4 4 4 3 4 6 8 10 14 17 19 21 22 24 25 25 24 23 22 20 18 16 15 14 13 13 11 9 8 6 3 1 3 4 4 5 6 5 5 4 5 6 6 7 7 8 9 10 12 14 16 16 17 17 17 16 15 15 15 15 16 14 8
3 4 2 1 4 4 1 3 3 2 3 3 5 2 3 5 7 11 9 5 6 5 5 7 6 5 6 8 11 14 17 19 21 20 20 20 21 21 21 21 20 20 20 19 18 17 15 12 11 9 8 6 5 3 1 2 3 4 5 6 6 5 4 5 6 7 8 7 6 7 8 10 11 12 14 15 15 15 14 14 13 11 10 10 7 6
4 3 2 2 3 3 2 3 3 3 3 3 4 3 4 3 4 9 8 5 5 4 3 5 4 3 6 8 10 14 17 20 22 21 19 18 17 18 19 18 17 17 17 17 16 16 16 14 13 12 10 7 4 2 1 2 2 4 5 5 5 5 5 5 6 6 8 8 8 8 8 8 9 9 10 12 12 12 12 11 11 9 8 8 8 8
5 3 2 3 1 3 4 2 1 3 4 1 1 0 1 1 1 4 4 1 2 3 2 3 3 2 5 5 5 7 8 11 14 15 16 15 15 15 14 14 13 13 13 13 12 13 13 12 12 12 12 11 9 7 6 5 4 4 5 5 6 6 6 6 5 4 6 8 9 9 8 8 9 9 9 10 10 10 10 9 9 9 9 9 9 9
4 2 3 3 1 3 5 3 2 3 2 4 4 2 3 3 2 4 5 2 1 4 2 2 3 3 4 5 4 6 6 4 5 6 10 12 11 10 10 10 10 11 11 12 12 12 12 12 12 12 12 12 11 11 11 10 8 7 8 9 9 9 9 8 7 6 7 7 7 8 8 6 7 9 9 10 9 10 10 10 10 10 10 10 10 9
6 3 3 4 2 3 5 4 2 3 3 4 5 5 7 5 3 4 5 0 2 4 3 4 6 5 6 8 6 5 5 3 1 2 7 9 8 9 9 9 9 10 11 11 12 13 14 14 14 14 14 14 13 13 13 12 12 11 11 12 12 12 13 12 10 10 12 11 10 11 10 8 9 10 9 8 8 10 12 11 11 11 11 11 11 11
6 5 4 4 2 2 4 3 2 3 2 2 4 7 9 2 5 6 3 5 4 3 5 8 9 9 8 9 8 6 5 2 3 3 7 8 8 10 10 11 12 12 13 13 14 15 16 17 17 17 17 17 17 17 17 17 16 15 14 14 13 13 14 14 14 15 15 15 15 15 13 12 14 15 12 9 9 11 13 12 11 11 11 10 10 10
4 3 2 3 3 3 4 3 0 2 3 2 4 8 7 3 6 3 4 6 1 4 7 8 9 9 9 9 8 6 4 2 1 5 8 9 11 11 12 13 14 15 16 17 17 18 19 19 20 20 20 20 20 20 21 21 21 20 19 19 17 15 14 13 14 16 17 18 17 16 14 14 16 17 18 17 16 15 15 13 12 11 11 10 9 9
2 2 3 2 2 2 3 3 1 2 2 4 5 6 5 4 4 3 5 5 4 6 6 6 7 6 7 8 7 5 3 4 6 8 11 13 14 15 16 17 17 18 19 19 20 21 22 22 22 22 22 22 22 22 22 22 23 23 23 23 22 20 19 17 15 15 16 18 20 19 17 15 16 17 18 20 21 20 19 17 16 15 14 13 12 10
1 1 2 1 1 2 3 3 2 3 4 9 6 3 4 2 6 7 7 6 5 5 5 5 5 6 6 6 6 6 6 8 10 12 14 16 17 19 20 20 21 22 22 22 22 23 24 24 25 25 25 24 23 23 22 22 24 25 25 26 24 23 23 23 21 20 19 18 20 22 22 20 18 16 17 18 20 20 20 19 18 17 17 16 15 13
1 1 1 1 0 2 2 1 2 4 5 9 5 4 4 6 10 10 8 6 4 4 3 4 5 6 7 9 10 11 12 13 15 16 18 19 20 21 22 23 23 24 24 25 25 25 26 26 27 27 27 26 25 24 23 23 24 25 26 27 26 24 23 23 24 24 24 22 21 22 24 25 21 18 17 16 16 17 18 17 17 16 15 14 13 12
1 2 4 2 1 2 2 2 4 2 4 10 14 13 10 11 9 6 6 5 3 1 2 3 5 6 7 10 12 13 15 17 18 19 21 22 22 23 24 25 25 26 27 27 27 28 28 28 29 30 30 29 27 26 24 23 24 26 27 27 26 26 25 25 24 24 24 25 25 23 23 24 24 24 23 21 19 19 19 19 19 18 17 15 14 12
1 3 5 4 2 3 5 5 5 4 6 11 13 11 10 9 6 4 3 2 1 2 2 2 4 5 7 9 11 13 15 17 19 21 22 24 25 26 27 28 28 28 29 30 31 31 32 32 32 33 33 33 31 29 28 26 25 26 26 26 26 26 27 27 27 26 24 23 24 25 25 24 24 24 25 24 23 23 24 24 23 21 19 16 14 12
1 2 3 4 3 3 2 3 4 5 6 7 7 7 7 7 6 5 3 3 3 3 3 4 5 6 7 9 11 13 14 16 19 21 23 25 27 28 29 30 31 31 31 32 32 33 33 34 35 35 35 35 34 33 32 31 30 29 28 27 26 26 27 28 30 30 29 26 23 22 24 25 25 25 24 24 25 27 29 29 27 25 22 21 20 18
3 4 4 3 3 2 2 5 6 5 4 4 5 7 7 6 6 5 3 3 3 3 4 4 5 7 8 10 11 13 15 17 19 22 24 25 26 27 28 29 30 31 31 32 32 33 34 35 36 36 36 36 35 34 34 34 33 33 33 31 29 27 27 28 30 31 31 31 27 24 21 22 24 26 27 27 27 28 29 29 29 29 27 26 26 22
2 2 2 2 3 3 1 3 5 3 1 4 5 5 5 5 4 3 3 3 4 5 6 7 8 9 10 11 13 15 17 18 19 20 22 23 24 25 27 28 29 30 31 32 33 33 34 34 35 35 36 36 35 34 34 34 34 33 34 34 33 32 30 30 30 30 31 31 31 29 25 21 20 22 25 27 28 28 28 27 26 25 24 22 21 18
2 1 1 4 4 1 2 6 9 4 2 5 6 5 5 5 4 4 4 6 7 7 8 9 9 10 11 13 14 15 16 16 17 18 20 22 23 25 26 27 28 29 30 30 30 30 29 29 29 30 31 32 31 31 31 32 32 32 32 32 33 34 34 33 32 31 31 31 31 31 30 27 23 21 22 23 23 24 26 28 26 24 22 21 20 19
3 3 3 4 4 3 5 13 15 7 1 4 7 6 6 6 5 5 6 6 7 7 8 8 9 11 12 13 12 12 13 15 16 18 20 22 22 23 23 24 25 26 26 25 24 24 25 24 25 26 27 27 27 27 28 28 28 28 28 28 29 31 34 35 35 35 34 32 31 31 31 30 28 25 22 21 20 20 21 23 25 25 24 23 22 20
Wind_Direction
139 131 164 200 207 218 214 183 171 165 133 130 135 157 203 222 272 265 264 276 156 142 229 207 185 205 192 183 184 175 178 185 189 194 198 196 197 201 204 206 209 209 209 209 207 202 199 201 205 200 186 183 188 193 195 197 192 190 194 197 197 197 200 207 209 215 230 251 292 306 304 291 278 263 224 217 237 277 302 303 292 282 267 252 244 237
86 125 229 220 207 203 200 175 144 122 109 102 137 217 265 226 247 259 260 296 285 161 272 179 168 209 211 192 179 163 168 183 188 192 194 191 194 202 207 210 210 209 209 209 210 208 203 201 202 199 192 190 192 195 198 202 202 198 198 201 201 201 208 211 211 214 223 247 282 298 310 306 289 283 259 224 265 307 320 333 332 310 282 261 254 251
29 241 245 226 181 146 139 140 134 131 113 89 119 163 256 241 270 288 277 312 338 130 318 105 134 277 299 222 194 172 179 196 195 196 197 192 195 203 210 212 211 208 207 209 211 211 206 201 200 198 195 195 196 200 204 207 209 206 202 203 202 205 213 213 208 207 212 237 263 274 287 294 289 298 311 322 345 356 344 338 347 343 339 310 285 280
298 252 249 200 143 129 129 134 118 98 95 120 137 142 244 261 325 297 287 327 354 46 113 110 97 9 346 340 277 223 195 200 202 203 206 201 201 208 214 216 214 209 206 207 210 211 207 201 200 199 197 198 200 205 210 209 209 207 204 203 202 208 215 213 209 206 208 224 245 256 261 269 280 300 324 337 349 3 5 355 346 331 330 330 298 293
221 235 182 122 141 157 159 155 132 124 213 239 186 166 216 252 203 215 291 340 353 15 71 89 58 354 358 169 249 250 198 139 185 192 202 208 209 215 223 224 219 212 207 207 210 210 206 201 200 199 199 201 203 208 210 207 206 205 203 203 204 211 215 211 210 208 209 220 233 243 254 278 305 318 334 342 347 360 3 354 349 322 297 266 255 259
248 238 171 141 167 174 162 184 182 164 179 297 234 198 195 202 204 216 345 20 33 11 7 67 66 324 320 269 223 233 229 193 172 183 196 205 212 220 227 228 221 214 210 209 212 210 205 202 200 199 200 201 203 208 208 204 204 204 204 204 206 214 214 209 209 210 214 224 230 239 267 328 350 347 344 345 343 351 3 6 9 349 306 278 263 258
252 227 157 151 157 156 163 227 224 166 125 326 248 200 174 157 157 135 63 65 84 195 303 63 114 210 317 300 243 257 227 221 215 205 202 202 209 219 225 227 221 215 211 210 213 211 206 204 202 202 202 202 204 208 205 202 203 203 203 206 212 217 214 208 208 209 216 224 223 222 240 338 1 354 350 352 346 345 353 0 7 9 354 313 287 275
196 143 82 100 112 118 154 240 229 150 121 235 232 153 142 147 156 138 93 93 198 211 322 13 91 121 319 267 284 13 160 221 254 233 220 210 210 217 223 225 221 216 213 211 212 212 209 207 206 205 203 204 206 206 203 201 201 201 203 209 216 219 215 210 209 210 215 222 221 212 210 264 321 331 342 350 346 340 341 344 348 353 358 351 315 289
189 168 174 125 101 118 192 216 190 151 140 238 202 133 137 141 135 128 96 85 346 102 295 326 32 101 248 272 324 42 128 231 249 229 225 218 213 216 220 223 223 219 215 213 213 213 211 209 208 207 205 206 207 206 204 202 202 203 206 213 220 222 217 211 211 212 215 221 222 216 224 276 298 308 328 340 337 332 329 329 330 333 336 337 332 311
244 200 198 144 130 213 221 211 175 164 176 208 153 101 65 62 73 82 91 98 30 58 234 290 359 107 255 288 329 35 133 233 247 237 226 219 217 217 218 220 222 221 217 214 214 214 213 211 210 209 207 208 208 206 206 205 205 207 212 218 223 223 218 213 214 215 217 220 218 212 232 285 297 304 321 331 326 321 319 317 315 314 316 321 330 324
285 246 198 162 187 199 176 151 173 167 139 130 110 67 48 33 28 39 54 84 63 10 252 268 307 120 224 285 265 202 243 240 263 278 250 219 216 217 218 219 220 221 219 214 214 215 214 212 210 209 209 211 210 208 209 210 210 213 219 224 227 224 219 214 215 218 217 217 216 211 220 266 296 308 320 327 324 317 313 309 309 312 318 327 337 336
334 343 247 250 227 162 113 73 66 68 79 103 83 71 76 8 9 26 1 49 88 266 259 272 276 137 153 254 236 261 280 277 269 272 271 228 217 215 215 216 217 219 219 214 213 214 213 212 209 209 210 212 212 211 212 213 215 220 224 228 228 223 218 214 214 217 216 215 216 212 215 256 298 312 320 324 321 313 309 307 312 320 329 342 353 355
326 258 271 307 260 167 121 75 41 15 32 81 84 83 94 20 14 30 316 18 159 238 263 305 297 169 205 223 209 250 276 279 264 260 261 252 236 220 210 210 211 213 215 213 213 213 213 212 210 211 212 213 215 216 216 218 220 224 228 230 225 219 216 214 212 215 215 217 218 214 222 252 280 290 307 316 309 302 303 306 315 324 338 358 1 3
308 300 317 326 278 199 143 126 145 244 75 128 136 125 120 102 88 191 266 330 233 241 289 318 308 254 259 268 253 265 280 290 299 298 261 241 236 216 197 194 196 200 205 206 209 211 212 214 213 213 214 216 218 218 220 222 224 228 230 227 221 218 216 214 215 218 218 218 217 216 229 248 258 259 255 269 286 288 293 300 313 321 342 12 356 2
196 306 276 202 248 208 163 162 162 155 145 169 158 128 141 155 141 188 213 168 198 233 315 316 308 172 201 287 303 300 324 344 12 54 98 135 167 169 166 171 176 185 192 195 200 204 205 208 210 212 215 219 222 223 224 226 228 232 230 222 220 220 218 216 214 211 213 218 217 220 229 236 247 236 200 212 275 270 271 285 302 312 327 30 3 145
155 247 257 252 234 153 175 191 140 117 101 217 133 109 151 179 140 130 171 166 163 138 4 279 226 208 207 279 309 339 7 13 36 70 92 106 123 133 137 144 151 160 171 182 191 193 195 199 206 212 217 223 228 230 230 231 234 236 228 221 220 218 215 214 213 218 235 243 238 236 231 230 234 218 205 251 265 227 229 255 268 286 289 263 146 155
133 253 283 322 343 163 181 186 148 143 169 161 120 159 213 170 118 110 126 33 81 122 205 256 262 299 339 317 318 8 21 4 20 51 79 100 115 119 119 122 122 120 115 115 157 175 174 183 205 218 223 230 236 239 239 240 242 240 230 219 213 215 221 227 232 242 249 243 240 243 237 231 230 220 224 243 228 208 222 234 236 251 260 263 229 172
144 257 294 6 69 328 49 105 72 42 121 127 174 198 190 105 97 105 107 21 51 142 250 336 298 293 27 167 310 14 30 350 351 22 65 90 105 108 109 113 112 106 99 86 57 92 122 130 202 247 245 244 246 247 249 250 250 246 239 226 217 227 245 252 251 251 248 241 243 248 242 235 231 221 224 228 215 217 227 219 227 243 251 258 247 216
125 221 292 280 155 314 4 77 62 354 39 113 166 158 114 122 134 95 120 131 116 162 267 339 327 258 188 216 291 18 198 305 345 19 70 87 101 107 110 113 111 104 106 122 145 99 72 86 225 261 254 246 246 247 249 250 249 245 243 240 240 249 257 257 251 247 245 243 246 248 245 239 233 222 219 220 214 219 214 202 205 217 234 248 238 230
102 143 273 278 200 322 4 61 147 307 7 46 82 57 37 128 153 154 141 149 145 155 212 317 353 274 224 214 222 238 243 226 182 80 110 119 122 127 130 129 131 133 140 158 170 165 157 171 208 233 230 226 234 242 246 245 244 243 241 243 250 257 260 256 248 240 239 241 242 243 242 240 232 224 222 220 212 212 206 196 194 201 218 234 229 226
80 129 218 288 332 38 30 354 193 191 127 69 58 40 19 69 121 141 98 99 126 139 171 161 238 269 251 218 234 263 260 221 181 151 131 127 131 142 142 136 141 150 155 166 171 164 172 186 201 212 204 210 228 237 242 241 241 243 244 247 253 259 261 259 252 239 232 234 237 239 242 237 224 222 229 224 210 208 205 198 199 204 210 217 221 222
120 142 178 300 5 52 281 293 277 232 172 137 125 147 148 123 124 125 112 265 104 120 165 158 184 262 274 276 277 284 270 231 162 117 87 103 125 136 135 132 140 148 150 157 158 152 163 175 185 191 180 188 212 220 227 225 227 237 243 250 256 256 252 253 254 245 232 230 234 238 241 232 221 224 233 223 207 207 206 202 206 210 209 211 217 219
147 110 101 57 13 252 266 290 322 316 109 110 101 128 138 115 108 128 172 214 109 95 152 119 131 249 279 311 305 302 288 154 126 122 112 109 121 121 118 126 133 135 134 138 141 143 152 160 169 172 156 154 173 195 213 210 208 216 229 247 255 252 241 234 241 242 234 229 229 233 234 229 226 229 228 215 208 211 209 206 211 214 211 212 218 217
130 91 81 38 317 315 301 317 344 354 62 79 60 58 95 69 89 140 173 171 133 149 150 86 112 250 292 333 351 1 27 74 90 109 118 111 115 118 116 120 124 125 124 128 132 137 145 150 157 154 140 128 121 131 207 212 208 209 225 251 264 261 233 200 203 218 224 223 219 221 226 228 230 228 217 209 211 214 214 213 215 214 211 215 221 218
126 84 93 98 28 351 336 337 340 343 31 66 51 21 59 78 78 109 130 81 111 182 157 126 191 247 287 347 13 18 27 48 56 77 109 111 107 112 112 111 115 118 119 120 123 127 130 132 132 119 107 96 86 88 191 182 198 206 239 292 321 321 277 201 195 202 210 213 210 212 219 225 227 220 211 210 214 215 217 218 217 215 214 219 223 220
105 87 101 123 147 172 183 237 261 256 12 37 55 29 47 92 102 142 128 81 133 191 137 136 197 240 309 355 9 13 17 26 35 59 86 94 95 103 106 110 117 122 124 128 127 123 116 109 93 74 88 101 114 137 170 163 158 118 60 5 355 342 322 284 225 203 202 206 206 209 214 221 225 222 216 216 218 217 217 218 217 213 214 221 225 226
99 58 56 113 136 175 195 227 235 148 83 47 56 28 15 12 64 102 97 103 174 159 99 216 187 144 353 352 359 359 7 19 24 41 57 63 69 82 95 111 126 130 131 130 115 113 108 105 110 108 115 125 128 130 140 97 36 26 18 8 355 334 318 306 282 249 230 218 212 213 216 220 226 227 224 224 224 223 221 222 223 218 217 222 230 234
101 38 14 76 66 314 214 245 342 84 80 52 39 23 8 359 25 76 93 159 147 123 224 272 148 98 357 342 351 346 355 17 26 35 47 57 66 74 81 91 100 101 104 105 109 126 135 138 145 144 142 142 133 131 134 46 359 347 340 339 331 320 315 309 291 270 250 229 219 221 223 226 229 229 229 229 229 227 225 227 230 228 226 228 234 240
112 60 355 69 32 6 18 17 32 74 81 49 32 24 29 28 35 75 96 317 107 135 195 209 88 79 349 334 342 344 356 24 46 53 62 69 74 81 84 83 81 77 79 87 102 139 162 167 167 160 157 156 144 147 168 201 234 267 288 300 304 304 308 310 290 267 256 238 226 225 228 231 235 233 231 230 230 228 228 231 235 239 239 237 237 241
106 107 155 113 68 24 16 2 31 71 73 47 22 3 47 73 64 72 77 26 70 106 145 118 94 74 350 320 339 3 38 65 68 66 66 68 73 81 84 80 78 76 77 78 77 90 142 175 174 170 170 162 150 161 190 213 229 238 246 264 283 285 289 294 281 258 248 241 234 229 228 231 233 232 229 228 231 231 231 235 240 245 247 244 242 243
82 140 177 112 89 28 351 322 20 72 69 63 30 348 14 76 71 56 62 68 76 85 112 105 93 74 19 14 26 50 70 71 66 64 63 64 70 78 77 72 71 72 72 73 73 75 87 131 175 182 179 170 172 184 200 229 243 245 251 265 279 279 280 281 277 268 253 240 232 232 234 234 231 228 228 229 232 234 236 242 247 250 250 250 249 249
68 120 157 86 96 231 307 296 164 78 69 74 68 332 348 58 84 69 56 65 102 136 140 104 97 113 346 25 52 67 70 68 65 64 66 67 70 74 73 69 67 66 66 68 69 68 69 73 82 116 159 182 206 210 206 224 234 240 259 274 283 289 292 288 283 277 264 248 237 234 236 236 234 234 234 235 235 238 243 248 250 250 251 253 253 253
81 133 147 107 124 178 198 100 117 93 87 89 260 288 353 94 126 104 54 26 48 128 146 137 148 178 207 55 76 71 67 69 67 66 69 70 71 73 72 69 67 64 63 64 64 63 63 61 59 61 76 104 161 197 209 221 227 237 255 267 278 286 294 297 292 280 268 257 248 244 238 235 236 237 238 237 237 240 244 245 246 249 253 258 262 263
67 109 136 125 123 151 181 48 74 103 139 233 272 262 199 154 131 106 77 18 23 62 114 126 125 121 94 93 100 90 83 80 75 71 71 71 71 71 69 66 64 61 60 59 55 53 53 54 56 58 64 73 76 80 126 202 215 231 243 247 253 262 272 281 286 282 275 266 257 252 244 239 239 240 240 239 237 238 238 238 242 247 253 259 264 262
72 80 109 95 106 137 141 54 85 191 240 291 311 297 130 124 112 100 85 41 32 49 76 88 92 106 116 116 110 102 95 85 77 72 70 69 69 70 67 63 59 55 53 50 45 41 37 36 39 40 49 63 65 61 101 187 197 213 228 235 235 230 232 248 260 266 266 266 265 263 257 252 250 247 242 237 234 234 234 235 238 239 238 237 225 198
118 115 117 78 87 137 114 92 153 230 296 14 28 48 95 96 82 84 70 25 17 28 62 90 91 111 128 129 122 112 100 85 74 67 66 67 66 64 62 59 54 49 45 40 37 35 32 29 27 24 23 20 13 359 304 258 233 226 237 248 245 232 216 208 216 238 249 253 257 260 259 259 260 256 243 231 228 228 225 224 225 222 213 207 199 192
119 127 120 85 97 138 120 127 190 353 1 79 111 63 94 21 352 107 106 55 6 12 41 112 98 96 125 132 145 152 129 86 64 54 55 60 60 57 56 52 46 40 32 26 21 19 19 17 15 14 10 2 355 348 336 320 290 253 257 266 257 249 247 238 226 235 248 251 253 251 249 253 258 255 245 234 229 227 223 219 215 211 207 202 198 194
78 123 161 150 151 108 98 90 35 19 283 225 229 263 11 8 245 153 114 103 354 4 6 138 101 67 83 81 112 168 156 84 48 32 38 45 46 43 41 36 27 19 11 4 356 352 352 351 351 351 350 346 341 338 337 331 313 285 269 268 262 257 263 266 260 251 245 240 239 237 234 245 259 257 251 248 245 237 230 221 209 203 205 208 207 203
42 42 100 116 121 110 111 127 164 190 227 235 236 280 338 340 213 130 83 291 300 11 49 119 94 70 70 65 72 114 112 95 211 331 14 19 16 14 10 1 358 354 348 344 338 333 331 331 331 330 330 329 324 321 322 322 317 303 283 274 269 262 263 265 262 258 256 256 259 255 251 262 272 264 255 254 251 238 228 219 215 217 219 223 224 220
24 16 49 95 119 114 116 132 186 204 231 237 243 298 330 317 158 108 92 251 283 34 94 107 89 76 71 65 62 71 86 134 217 315 349 349 347 350 345 338 337 332 327 325 321 317 316 315 314 313 315 316 316 314 312 310 308 303 295 288 282 273 266 262 261 259 255 253 256 258 257 263 266 258 249 244 235 227 226 225 224 223 220 219 218 215
17 18 50 115 109 75 104 114 355 260 250 259 296 329 353 118 141 127 204 222 214 94 105 93 85 78 65 61 66 73 83 96 322 326 331 330 328 328 325 323 321 317 316 315 311 309 307 305 305 304 303 304 305 305 305 304 300 297 292 288 286 283 277 269 262 258 251 245 242 241 242 250 255 251 245 238 230 222 223 225 222 219 221 223 221 215
20 14 21 85 79 60 115 113 51 259 288 337 332 342 25 107 172 212 193 169 121 108 94 69 69 63 47 48 56 55 31 357 341 328 326 326 324 322 319 315 311 308 305 304 303 303 301 299 299 297 295 295 295 295 295 293 291 291 288 283 280 279 278 274 266 259 255 248 240 234 235 241 246 245 240 233 228 225 224 224 223 224 229 234 234 231
81 67 35 70 78 74 88 68 90 192 314 345 339 326 12 87 166 159 137 130 119 105 80 49 36 24 13 8 6 357 342 338 334 326 323 321 318 317 316 314 312 310 307 304 303 302 300 297 295 293 292 292 292 291 290 287 283 281 280 277 275 274 275 274 270 265 261 255 246 241 240 239 237 238 239 234 229 226 224 224 225 225 229 236 240 243
39 103 155 227 5 95 118 105 158 203 316 3 55 109 81 109 134 129 117 119 112 85 49 12 356 348 344 341 337 333 329 329 327 323 321 318 316 315 314 312 312 310 308 307 305 303 302 300 296 293 291 290 289 288 287 285 283 279 275 272 271 269 269 270 270 269 265 261 256 250 247 245 239 232 232 233 229 226 222 220 222 225 228 236 242 247
1 93 116 112 53 86 113 136 148 157 34 59 86 102 104 110 117 108 96 97 78 21 319 326 325 320 325 326 322 321 323 323 322 321 319 318 317 316 315 313 311 308 306 304 302 300 299 297 295 292 289 287 286 285 282 280 280 278 276 274 271 267 264 263 264 265 264 263 260 256 255 255 248 238 235 238 239 237 233 228 229 233 236 241 245 250
85 92 88 92 105 74 65 90 127 125 99 94 100 106 110 115 121 115 109 121 240 239 233 268 292 298 306 309 309 316 320 318 317 317 315 315 315 314 312 310 307 305 304 302 300 299 298 296 294 292 289 287 285 283 281 278 275 273 273 274 272 269 266 262 260 260 260 259 259 257 257 257 252 245 243 244 244 243 240 237 234 231 228 229 231 237
342 55 71 94 112 92 85 165 175 145 123 122 126 133 137 145 157 159 164 196 209 208 228 259 282 293 301 306 309 313 315 314 314 313 311 311 310 309 308 307 305 304 303 302 302 301 300 298 296 294 293 291 288 285 282 278 274 271 269 268 267 267 266 263 261 259 256 255 254 255 255 254 252 248 244 241 240 240 240 239 237 233 229 231 235 243
346 45 79 93 80 85 185 194 176 149 146 152 152 159 166 168 175 184 189 198 213 239 259 273 291 300 304 309 312 312 312 312 310 309 308 308 308 308 308 306 305 304 303 302 302 302 300 299 298 297 296 294 292 290 286 282 277 273 269 265 261 260 261 261 260 259 256 254 252 250 250 251 250 248 245 242 239 237 236 236 238 239 240 244 247 251
350 41 104 101 79 75 109 159 143 123 217 203 175 169 176 174 183 211 227 246 262 272 280 291 300 305 308 310 310 309 308 307 307 307 307 309 309 310 308 306 305 304 302 301 301 300 301 301 300 299 298 297 296 295 291 287 283 279 275 270 264 259 257 256 257 258 257 254 251 248 246 247 246 244 243 242 239 235 231 230 232 237 238 237 240 242
43 120 134 92 103 138 230 180 164 148 275 222 194 176 178 191 213 239 251 267 273 275 285 294 298 302 304 304 305 306 307 308 311 311 310 312 312 310 308 306 303 301 301 302 303 303 304 305 304 304 302 301 301 299 295 291 287 283 279 276 271 265 259 254 252 253 254 253 251 248 246 245 244 241 239 238 235 231 225 221 221 224 226 225 226 229
71 163 170 128 148 203 199 180 178 174 183 199 190 183 191 207 224 235 247 262 269 276 288 294 296 300 302 304 308 313 314 316 318 317 315 315 313 310 309 308 305 305 308 311 313 314 314 315 316 315 313 312 312 310 307 302 298 292 287 281 276 271 264 256 251 248 248 250 250 248 246 246 245 244 243 239 235 232 227 222 218 216 216 220 224 226